Regional Weather Roundup
Issued by NWS

Home | Current Version | Previous Version | Graphics & Text | Print | Product List | Glossary On
Versions: 1 2 3 4 5 6 7 8 9 10 11 12 13 14 15 16 17 18 19 20 21 22 23 24 25 26 27 28 29 30 31 32 33 34 35 36 37 38 39 40 41 42 43 44 45 46 47 48 49 50
000
ASUS45 KSLC 030610
RWRUT

UTAH REGIONAL WEATHER ROUNDUP
NATIONAL WEATHER SERVICE SALT LAKE CITY UT
1200 AM MDT TUE MAY 03 2016

UTZ001>011-023>025-030700-

NORTHERN UTAH

CITY           SKY/WX    TMP DP  RH WIND       PRES   REMARKS
BRIGHAM CITY   CLEAR     52  33  49 W5        30.18S
HILL AFB       CLEAR     50  31  47 E10       30.19S
LOGAN          CLEAR     49  37  63 S6        30.19S
OGDEN          CLEAR     50  32  50 S8        30.17F
PROVO AIRPORT  CLEAR     50  34  53 SE3       30.19S
SALT LAKE CITY CLEAR     54  34  46 S6        30.18S
VERNAL         CLEAR     45  30  55 W5        30.20R
WENDOVER       CLEAR     52  37  58 W5        30.19S
HEBER CITY     CLEAR     39  32  75 CALM      30.21S

$$

UTZ012>022-026-027-030700-

SOUTHERN/CENTRAL UTAH

CITY           SKY/WX    TMP DP  RH WIND       PRES   REMARKS
BLANDING       CLEAR     41  36  81 N8        30.26F
BRYCE CANYON   CLEAR     32  29  88 W6        30.28F WCI  26
CEDAR CITY     CLEAR     42  36  79 NE6       30.19S
DELTA          CLEAR     48  36  61 CALM      30.18S
HANKSVILLE     CLEAR     52  36  54 W5        30.18S
MILFORD        CLEAR     45  36  70 SW5       30.18F
MOAB/CYNLANDS  CLEAR     50  37  61 SW3       30.14R
PRICE          CLEAR     46  32  58 N8        30.20S
ST GEORGE      CLEAR     61  39  44 CALM      30.13S
KANAB          CLEAR     50  37  62 N10       30.22

$$

REGIONAL REPORTS     COLORADO/ARIZONA

CITY           SKY/WX    TMP DP  RH WIND       PRES   REMARKS
CRAIG, CO      CLEAR     36  26  67 CALM      30.22S
GRAND JUNCTION CLEAR     51  36  56 W3        30.16R
RIFLE          CLEAR     44  33  65 SE5       30.19R
MONTROSE       PTCLDY    45  31  58 SE7       30.22R
CORTEZ         CLEAR     37  34  89 NE6       30.20F WCI  32
PAGE, AZ       CLEAR     55  39  54 CALM      30.15S
GRAND CANYON   CLEAR     35  31  85 CALM      30.23S
KINGMAN        CLEAR     56  42  59 E6        30.09S
FLAGSTAFF      CLEAR     33  33 100 CALM      30.22F

$$

REGIONAL REPORTS    NEVADA/IDAHO/WYOMING

CITY           SKY/WX    TMP DP  RH WIND       PRES   REMARKS
LAS VEGAS, NV  CLEAR     72  36  26 N8        30.00S
ELY            PTCLDY    39  32  76 SE5       30.24R
ELKO           CLEAR     48  35  60 CALM      30.18S
POCATELLO, ID  CLEAR     45  32  60 CALM      30.18F
BURLEY         CLEAR     48  36  63 SW5       30.15S
EVANSTON, WY   CLEAR     43  24  47 E5        30.26S
ROCK SPRINGS   CLOUDY    45  17  32 S3        30.24S
KEMMERER         N/A     41  19  42 N3        30.26S

$$



USA.gov is the U.S. government's official web portal to all federal, state and local government web resources and services.